星链-4123 (STARLINK-4123 )

导读 | 豆包AI

STARLINK-4123是美国太空探索技术公司(SpaceX)星链卫星互联网项目的组成部分,于2022年8月19日发射升空,隶属于星链Group 4批次。星链计划旨在通过近地轨道卫星星座搭建全球宽带互联网网络,该卫星服役后为全球偏远地区、海上与空中用户提供低延迟互联网接入服务,目前已在轨稳定运行数年。

Basic Information
目录编号:
53539
目录名称:
STARLINK-4123
国际标识:
2022-101N
轨道中心:
EARTH
卫星名称:
星链-4123
卫星全名:
星链-4123 (STARLINK-4123 )
卫星状态:
在轨 (已飞行1304 天)
发射日期:
2022-08-19 UTC
国别 :
美国 (US)
星等 :
--
Orbit Information
数据来源 国际轨道数据 AOE轨道数据
星历时间 2026-03-15T05:23:08+0800
10小时前
查看轨道信息
2026-03-14T11:00:00+0800
1天前
查看轨道信息
半长轴 6917.87km 6917.804km
偏心率 0.000125 0.000108
轨道倾角 53.217° 53.217°
近地点辐角 62.637° 70.968°
升交点赤经 50.771° 54.210°
平近点角 297.475° 85.752°
近地点 538.868km 538.919km
远地点 540.598km 540.415km
周期 95.437分钟 95.436分钟
每日圈数 15.088434 15.088651
Detailed Information
固有亮度:
5
最大亮度:
2.5
卫星平台:
Starlink v1.5
覆盖范围:
全球
运营商:
太空探索技术公司
运营商所在国:
美国
制造商(研发单位):
太空探索技术公司
制造商所在国:
美国
使用方式:
暂无
Satellite Introduction
星链(Starlink)计划是由太空探索技术公司(SpaceX)提出的一个巨型低轨卫星互联网星座项目,计划在2019年至2024年间在太空搭建由约1.2万颗卫星组成的“星链”网络,其中1584颗将部署在地球上空550千米处的近地轨道,并从2020年开始工作。该卫星仍在工作。
2D Orbit Map
3D Orbit Map
Orbit Altitude Analysis Chart
Orbit Inclination Analysis Chart
Orbit Comprehensive Analysis Chart
View Comprehensive Chart